Location: Boca do Corvo
(4.6667°S, 37.8167°W)
Time: 18:38:23
(UTC+00:00)

Daily predictions for brighter satellites

Satellite Brightness Start Highest point End
(mag) Time Altitude Azimuth Time Altitude Azimuth Time Altitude Azimuth
SL-16 R/B 3.7 20:41:38 10° SE 20:45:07 17° ESE 20:48:36 10° ENE
Aurora 2 Rocket 4.4 20:43:14 10° WNW 20:46:29 22° NNW 20:50:35 10° NNE
EO 1 Delta rocket 4.1 20:43:08 10° S 20:47:47 85° W 20:53:02 10° N
Hubble Space Telescope 2.3 20:44:42 10° W 20:48:15 28° NNW 20:51:49 10° NNE
Sich 1 4.1 20:46:38 10° NNE 20:50:15 25° E 20:53:54 10° SE
Cosmos 158 Rocket 4.1 20:44:58 10° S 20:50:19 65° ESE 20:55:37 10° NNE
H-2A R/B 4.1 20:49:20 10° S 20:53:05 45° WSW 20:56:49 10° NNW
Cosmos 1980 Rocket 2.5 20:50:13 10° SSW 20:55:48 74° WNW 21:01:25 10° N
Cosmos 2322 Rocket 3.6 20:53:40 10° SSE 20:57:27 18° ESE 21:00:47 11° ENE
COSMOS 2455 4.4 20:53:48 10° SSE 20:57:33 17° ESE 21:00:52 11° ENE
YAOGAN 6 2.9 20:55:27 10° SSE 20:58:53 41° E 21:02:13 10° N
Tsikada Rocket 4.1 20:54:05 10° S 21:00:13 61° E 21:06:24 10° NNE
Timation 2 Rocket 4.1 20:54:10 10° NNW 21:00:35 88° ENE 21:07:18 10° SSE
Cosmos 2219 4.3 20:57:15 10° NNE 21:01:14 20° ENE 21:05:16 10° ESE
GOES 2 Rocket 4.2 20:56:45 10° SW 21:01:44 36° SSE 21:05:27 12° E
ASTRO E2 3.9 21:00:04 10° SSW 21:03:37 30° SSE 21:06:32 13° E
BREEZE-M DEB (TANK) 3.6 20:57:43 10° NNW 21:07:26 58° NE 21:10:35 10° SE
Cosmos 2228 Rocket 3.6 21:05:23 10° SSE 21:09:25 36° E 21:13:28 10° NNE
Cosmos 1816 Rocket 4.5 21:05:55 10° S 21:12:10 87° E 21:18:27 10° N
Cosmos 1633 3.2 21:09:26 10° NNE 21:12:42 33° E 21:15:59 10° SSE
Atlas Centaur 2 4.0 21:13:47 10° SW 21:20:48 31° SSE 21:25:39 15° ESE
Palapa 6 Rocket 3.7 21:17:40 10° W 21:21:31 42° NNW 21:24:21 20° NE
Cosmos 1862 3.8 21:18:23 10° NNE 21:22:04 37° E 21:25:48 10° SSE
Cosmos 2227 Rocket4.321:29:03ESE21:29:03ESE21:18:45NNE
Cosmos 2297 Rocket 3.7 21:27:43 17° ESE 21:27:43 17° ESE 21:29:46 10° ESE
Cosmos 1782 4.2 21:23:37 10° SE 21:26:07 21° ESE 21:26:07 21° ESE
Envisat 4.0 21:23:40 10° S 21:28:35 50° WSW 21:33:28 10° NNW
Cosmos 1818 3.7 21:25:01 10° NNW 21:30:24 76° WSW 21:35:46 10° SSE
ADEOS Rocket 2.8 21:25:14 10° NNE 21:30:50 58° ESE 21:36:13 10° S
CZ-4 R/B 1.8 21:28:30 10° S 21:32:43 68° WSW 21:36:54 10° NNW
SAR-Lupe-2 3.4 21:36:45 36° NNE 21:38:03 69° ESE 21:41:38 10° S
Cosmos 1400 Rocket 2.7 21:36:57 10° S 21:40:54 60° E 21:41:59 42° NE
GPS 2-05 Rocket1 3.9 21:44:03 10° WNW 21:46:36 32° SW 21:47:16 27° S
Ariane H10 3.9 21:46:02 10° WNW 21:49:11 17° NNW 21:49:36 17° N
CZ-2D R/B 3.1 21:46:34 10° SSE 21:50:27 83° E 21:52:03 34° N
Cosmos 1939 Rocket 2.7 21:48:00 10° SSE 21:52:04 78° E 21:53:31 39° N
CZ-2C R/B 4.2 21:50:06 14° N 21:54:05 63° WNW 21:58:47 10° SSW
SeaSat 1 3.2 21:49:26 10° S 21:54:14 53° WSW 21:59:01 10° NW
NOSS 2-2 (D) 3.4 21:51:29 10° SSW 21:56:33 72° ESE 21:56:49 69° E
ARIANE 5 R/B 2.9 21:55:28 10° W 21:58:12 38° W 21:58:12 38° W
ISS -2.6 21:59:35 10° SW 22:02:17 40° W 22:02:17 40° W
NOAA 11 4.2 21:58:57 10° S 22:04:23 82° WSW 22:09:48 10° NNW
Cosmos 1633 Rocket 4.3 22:06:15 10° NNW 22:10:24 41° W 22:14:35 10° SSW
Ariane Rocket 2.9 22:06:21 10° SSE 22:11:11 75° ESE 22:11:11 75° ESE
Cosmos 1048 Rocket 4.0 22:16:00 10° SSW 22:20:55 78° WSW 22:20:55 78° WSW
ARIANE 5 DEB (SYLDA) 4.4 22:18:12 10° W 22:22:36 87° S 22:25:27 47° E
H-2A ROCKET BODY 2.7 22:12:41 10° SW 22:23:03 45° SSE 22:23:03 45° SSE
SL-16 R/B 3.6 22:23:56 10° SW 22:28:59 34° WNW 22:31:28 24° NNW
Cosmos 2360 Rocket 2.7 22:28:24 10° SSW 22:32:35 52° S 22:32:35 52° S
Cosmos 2322 Rocket 3.7 22:36:23 10° SW 22:41:14 30° WNW 22:42:41 27° NW
FALCON 9 R/B4.122:53:09ESE22:53:09ESE22:38:22W
COSMOS 2455 3.9 22:37:43 10° SW 22:43:15 39° WNW 22:44:04 37° NW
ATLAS 2AS CENTAUR R/B 2.8 22:36:16 10° SSW 22:43:17 86° SW 22:43:17 86° SW
Cosmos 2227 Rocket 4.1 23:10:31 25° SW 23:10:31 25° SW 23:13:36 10° SSW
Cosmos 2297 Rocket 4.0 23:08:53 26° W 23:09:21 27° WSW 23:14:03 10° SSW
Atlas Centaur 2 3.6 23:03:14 10° WSW 23:08:16 43° WSW 23:08:16 43° WSW
CZ-3B R/B 4.4 22:41:22 10° WSW 23:16:08 66° SSE 23:16:58 64° SE
